Regional Weather Roundup
Issued by NWS

Home | Current Version | Previous Version | Text Only | Print | Product List | Glossary On
Versions: 1 2 3 4 5 6 7 8 9 10 11 12 13 14 15 16 17 18 19 20 21 22 23 24 25 26 27 28 29 30 31 32 33 34 35 36 37 38 39 40 41 42 43 44 45 46 47 48 49 50
980
ASUS43 KDTX 212101
RWRMI
MICHIGAN HOURLY REGIONAL WEATHER ROUNDUP
NATIONAL WEATHER SERVICE DETROIT/PONTIAC MI
500 PM EDT FRI JUL 21 2017

NOTE: "FAIR" INDICATES FEW OR NO CLOUDS BELOW 12,000 FEET WITH NO
SIGNIFICANT WEATHER AND/OR OBSTRUCTION TO VISIBILITY.

MIZ047>049-052>055-059>063-066>070-074>076-081>083-212200-
SOUTHEAST LOWER MICHIGAN

CITY           SKY/WX    TMP DP  RH WIND       PRES   REMARKS
ADRIAN         MOSUNNY   87  66  49 NW5       29.98S
ALMA           PTSUNNY   86  66  50 S10G18    29.96S
ANN ARBOR      PTSUNNY   88  69  53 S6        29.96F HX  92
BAD AXE        PTSUNNY   84  60  44 W5        29.97S
CARO           MOSUNNY   88  64  45 SW5       29.95S
DETROIT CITY   PTSUNNY   85  62  46 SE7       29.96F
DETROIT        CLOUDY    88  67  49 SW5       29.96F HX  91
FLINT          CLOUDY    86  64  47 VRB6      29.96F
GROSSE ILE     CLOUDY    82  71  67 S8        29.96R
HILLSDALE      MOSUNNY   84  64  51 CALM      29.99F
HOWELL         CLOUDY    83  63  50 S6        29.98S

CITY           SKY/WX    TMP DP  RH WIND       PRES   REMARKS
JACKSON        CLOUDY    87  63  44 W8        29.98S
LAMBERTVILLE   MOSUNNY   86  69  55 N5        29.97R HX  90
LANSING        CLOUDY    85  65  51 SW9       29.97S
LAPEER         FAIR      85  63  47 CALM      29.97F
MASON          PTSUNNY   82  68  61 CALM      29.98S
MONROE         CLOUDY    85  68  56 S3        29.96S
MT. CLEMENS    CLOUDY    84  67  57 E7        29.95S
PONTIAC        CLOUDY    84  61  45 SW6       29.96F
PORT HOPE        N/A     75  64  68 SE10      29.95F
PORT HURON     CLOUDY    84  66  54 CALM      29.97S
TRI CITIES     MOSUNNY   88  68  51 W8        29.95F HX  91
MIDLAND        PTSUNNY   89  67  47 W8        29.93S HX  92
TROY           MOSUNNY   87  60  39 CALM      29.98S
SAGINAW HB     MOSUNNY   86  64  48 SW9       29.95R
$$
MIZ043>046-050>051-056>058-064>065-071>073-077>080-212200-
SOUTHWEST LOWER MICHIGAN

CITY           SKY/WX    TMP DP  RH WIND       PRES   REMARKS
BATTLE CREEK   PTSUNNY   85  66  53 S7        29.98F
BENTON HARBOR  MOSUNNY   82  68  62 NW3       29.95F
BIG RAPIDS     CLOUDY    86  56  35 NW7       29.96S
COLDWATER      SUNNY     86  65  48 CALM      29.98F
FREMONT        FAIR      84  63  49 W6        29.96S
HOLLAND        CLOUDY    79  70  74 W7        29.97S
GRAND RAPIDS   PTSUNNY   86  68  54 SW6       29.96F
IONIA          FAIR      85  64  49 SW5       29.96F
KALAMAZOO      MOSUNNY   86  64  47 S8        29.97F
LUDINGTON      PTSUNNY   74  70  85 W10       29.97S
MARSHALL       CLOUDY    85  67  54 S3        29.97F
MOUNT PLEASANT MOSUNNY   90  60  35 NW3       29.94S HX  90
MUSKEGON       CLOUDY    78  70  76 W8        29.97S
SOUTH HAVEN    CLOUDY    81  71  72 NW5       29.96F
$$
MIZ016>042-212200-
NORTHERN LOWER MICHIGAN

CITY           SKY/WX    TMP DP  RH WIND       PRES   REMARKS
ALPENA         CLOUDY    79  66  64 SE7       29.96R
BEAVER ISLAND  CLOUDY    82  60  47 CALM      29.95S
BELLAIRE       CLOUDY    83  59  44 NW5       29.96S
CADILLAC       MOSUNNY   84  62  47 NW6       29.99S
CHARLEVOIX     MOSUNNY   82  60  47 W3        29.98F
FRANKFORT      PTSUNNY   79  66  64 CALM      29.95F
GAYLORD        PTSUNNY   83  56  39 NW7       29.99S
GRAYLING       CLOUDY    83  59  44 NW5       29.99S
HARBOR SPRINGS PTSUNNY   75  67  75 SW5       29.96S
HOUGHTON LAKE  CLOUDY    85  61  44 W8        29.98S
MANISTEE       CLOUDY    77  67  71 W7        29.96F
OSCODA         CLOUDY    81  62  51 SE6       29.94R
PELLSTON       PTSUNNY   84  60  44 W7        29.96S
ROGERS CITY    CLOUDY    76  65  70 N8        29.96F
TRAVERSE CITY  CLOUDY    84  60  44 NE6       29.94F
$$
MIZ007>008-015-212200-
EASTERN UPPER MICHIGAN

CITY           SKY/WX    TMP DP  RH WIND       PRES   REMARKS
MACKINAC ISLAN MOSUNNY   74  67  76 SW3       29.95S
NEWBERRY       PTSUNNY   75  63  64 N6        29.96R
S. S. MARIE    SUNNY     80  54  40 NW9       29.95S
MUNISING         N/A     67  64  90 NE7       29.95F
$$
MIZ004>006-011>014-085-212200-
CENTRAL UPPER MICHIGAN

CITY           SKY/WX    TMP DP  RH WIND       PRES   REMARKS
MANISTIQUE     CLOUDY    73  68  84 S3        29.95R
ESCANABA       CLOUDY    77  70  79 SE9       29.92F
MENOMINEE      CLOUDY    84  68  58 SW9       29.93F
SAWYER-GWINN   SUNNY     73  61  64 NE9       29.96
$$
MIZ001>003-009>011-084-212200-
WESTERN UPPER MICHIGAN

CITY           SKY/WX    TMP DP  RH WIND       PRES   REMARKS
IRON MOUNTAIN  PTSUNNY   85  62  46 S6        29.92F
HOUGHTON       CLOUDY    79  57  46 SE6       29.94R
COPPER HARBOR    N/A     67  53  61 CALM      29.93F
IRONWOOD       MOSUNNY   84  64  50 S9        29.90F
$$

ABBREVIATIONS USED IN REMARKS
   TC - TEMPERATURE IN CELSIUS
  WCI - WIND CHILL INDEX
   HX - HEAT INDEX
  VSB - VISIBILITY





USA.gov is the U.S. government's official web portal to all federal, state and local government web resources and services.